Location: Bastelaar
(51.0950°N, 3.8602°E)
Time: 02:13:31
(UTC+00:00)

Cosmos 1346 Rocket - Pass Details

Date: 18 November 2025
Orbit: 479 x 490 km, 81.2° (Epoch: 13 December)

Event Time Altitude Azimuth Distance (km) Brightness Sun altitude
Rises 17:33:19 0° 355° (N) 2,592 6.2 -15.5°
Reaches altitude 10° 17:35:38 10° 6° (N) 1,704 5.1 -15.9°
Enters shadow 17:37:40 24° 33° (NNE) 1,072 3.9 -16.2°
